STARLINK-34539 (64674 NORAD) Tracking and Keplerian Element Data

This shows tracking and keplerian element data for the satellite.

Feedback or suggestion? Click here.




ElementValue
Catalog64674
NameSTARLINK-34539
Epoch Orbit2795
Epoch Day353.79190622
Epoch Year2025
RAAN137.9983
Inclination53.1591
Eccentricity9.14E-05
Argument of Perigee81.2018
Mean Anonmoly278.9086
Mean Motion15.30200624
Decay Rate0.00024569
L11 64674U 25139L 25353.79190622 .00024569 00000+0 83888-3 0 9994
L22 64674 53.1591 137.9983 0000914 81.2018 278.9086 15.30200624 27953



Live tracking and technical data element details for STARLINK-34539 (NORAD 64674). STARLINK-34539 can be tracked NOW for your location showing map with azimuth and elevation plus other details from your city location.







IsCatalogInMostPopularTable: catalog: 64674, numindb: 8
Update: records affected: 1



GetName: 64674 STARLINK-34539

Hit Count: updated at: Wed, 15 Apr 2026 01:06:45 GMT